#timestamp,LO_Frequency,Hit,StdDev 
1646596815.1,286047000.6,N
1646596835.9,286047000.8,N
1646596855.7,286047001.0,N
1646596875.5,286046998.4,N
1646596895.4,286047001.2,N
1646596915.2,286047000.7,N
1646596935.1,286047000.7,N
1646596936.0,286047000.7,N
1646596955.8,286047002.1,N
1646596975.6,286047001.5,N
1646596995.5,286047000.9,N
1646597015.3,286046999.8,N
1646597035.2,286047002.5,N
1646597055.9,286047002.1,N
1646597075.7,286047001.4,N
1646597095.6,286047001.5,N
1646597115.4,286047002.5,N
1646597135.2,286047002.2,N
1646597155.1,286047002.3,N
1646597156.0,286047002.3,N
1646597175.8,286047002.7,N
1646597195.7,286047000.3,N
1646597215.5,286047000.2,N
1646597235.3,286047001.0,N
1646597255.2,286046998.2,N
1646597275.0,286046998.9,N
1646597275.9,286046998.9,N
1646597295.8,286046998.7,N
1646597315.6,286046999.6,N
1646597335.4,286046996.5,N
1646597355.3,286046999.3,N
1646597375.1,286046997.0,N
1646597395.9,286046996.7,N
1646597415.7,286046999.5,N
1646597435.5,286046996.5,N
1646597455.4,286046996.5,N
1646597475.2,286046999.5,N
1646597495.0,286046999.3,N
1646597496.0,286046999.3,N
1646597515.8,286046999.1,N
1646597535.6,286047001.0,N
1646597555.5,286047000.6,N
1646597575.3,286047000.5,N
1646597595.1,286047000.8,N
1646597615.9,286046998.1,N
1646597635.7,286047000.0,N
1646597655.6,286047002.4,N
1646597675.4,286047001.6,N
1646597695.2,286047002.4,N
1646597715.1,286047001.7,N
1646597716.0,286047001.7,N
1646597735.8,286047002.3,N
1646597755.6,286046999.9,N
1646597775.5,286046999.7,N
1646597795.3,286047001.9,N
1646597815.2,286047002.3,N
1646597835.9,286047001.7,N
1646597855.7,286047000.1,N
1646597875.6,286047000.1,N
1646597895.4,286047000.5,N
1646597915.2,286046999.7,N
1646597935.1,286047000.1,N
1646597936.0,286047000.1,N
1646597955.8,286047002.3,N
1646597975.7,286046999.7,N
1646597995.5,286046999.9,N
1646598015.3,286047000.4,N
1646598035.2,286046998.4,N
1646598055.0,286047000.4,N
1646598055.9,286047000.4,N
1646598075.7,286047000.1,N
1646598095.6,286047005.4,Y
1646598115.4,286047006.4,P
1646598135.3,286047004.8,N
1646598155.1,286047003.5,N
1646598156.0,286047003.5,N
1646598175.8,286047006.0,Y
1646598195.7,286047001.3,P
1646598215.5,286047005.0,P
1646598235.4,286047008.0,P
1646598255.2,286047009.9,Y
1646598275.0,286047001.8,P
1646598275.9,286047001.8,N
1646598295.8,286046999.8,N
1646598315.6,286046996.7,N
1646598335.4,286046993.4,N
1646598355.3,286046994.8,N
1646598375.1,286046992.2,N
1646598395.9,286046994.3,N
1646598415.7,286046992.5,N
1646598435.5,286046992.7,N
1646598455.4,286046992.4,N
1646598475.2,286046992.9,N
1646598495.0,286046990.5,N
1646598495.9,286046990.5,N
1646598515.8,286046992.5,N
1646598535.6,286046990.6,N
1646598555.5,286046990.5,N
1646598575.3,286046990.9,N
1646598595.1,286046988.5,N
1646598615.9,286046991.2,N
1646598635.7,286046991.3,N
1646598655.5,286046990.7,N
1646598675.4,286046990.8,N
1646598695.2,286046990.4,N
1646598715.1,286046991.4,N
1646598716.0,286046991.4,N
1646598735.8,286046990.7,N
1646598755.6,286046991.4,N
1646598775.5,286046988.5,N
1646598795.3,286046988.6,N
1646598815.1,286046991.2,N
1646598835.9,286046990.9,Y
1646598855.7,286046999.5,P
1646598875.6,286046998.4,N
1646598895.4,286046998.9,N
1646598915.3,286046997.2,N
1646598935.1,286046997.4,N
1646598936.0,286046997.4,N
1646598955.8,286046997.3,N
1646598975.7,286046997.5,N
1646598995.5,286046997.6,N
1646599015.4,286046997.2,N
1646599035.2,286046995.1,N
1646599055.0,286046994.9,N
1646599055.9,286046994.9,N
1646599075.8,286046997.9,N
1646599095.6,286046997.8,N
1646599115.4,286046995.0,N
1646599135.3,286046994.9,N
1646599155.1,286046995.1,N
1646599175.9,286046995.1,N
1646599195.7,286046995.6,N
1646599215.5,286046995.8,N
1646599235.4,286046999.5,N
1646599255.2,286046998.4,N
1646599275.0,286046999.0,N
1646599275.9,286046999.0,N
1646599295.8,286046998.9,N
1646599315.6,286046998.7,N
1646599335.5,286046999.5,N
1646599355.3,286046998.1,N
1646599375.1,286046998.2,N
1646599395.9,286046998.4,N
1646599415.7,286046998.2,N
1646599435.5,286047001.2,N
1646599455.4,286047000.3,N
1646599475.2,286047000.7,N
1646599495.1,286046999.7,N
1646599496.0,286046999.7,N
1646599515.8,286047001.1,N
1646599535.6,286047001.1,N
1646599555.5,286046998.3,N
1646599575.3,286046996.6,N
1646599595.1,286046998.8,N
1646599615.9,286046999.5,N
1646599635.7,286046999.5,N
1646599655.6,286046998.9,N
1646599675.4,286046999.2,N
1646599695.2,286046997.0,N
1646599715.1,286046999.3,N
1646599716.0,286046999.3,N
1646599735.8,286046996.5,N
1646599755.7,286046996.5,N
1646599775.5,286046997.0,N
1646599795.3,286046998.4,N
1646599815.2,286046999.0,N
1646599835.0,286046999.0,N
1646599835.9,286046999.0,N
1646599855.8,286046998.9,N
1646599875.6,286046999.2,N
1646599895.4,286046998.3,N
1646599915.3,286046998.8,N
1646599935.1,286046998.8,N
1646599955.9,286046999.0,N
1646599975.7,286046998.6,N
1646599995.5,286046999.0,N
1646600015.4,286046998.7,N
1646600035.2,286046998.3,N
1646600055.0,286047000.9,N
1646600055.9,286047000.9,N
1646600075.8,286047000.6,N
1646600095.6,286047000.4,N
1646600115.5,286046999.7,N
1646600135.3,286047000.9,N
1646600155.1,286046999.9,N
1646600175.9,286047001.1,N
1646600195.7,286046998.3,N
1646600215.6,286047001.1,N
1646600235.4,286046998.2,N
1646600255.2,286046998.1,N
1646600275.1,286047000.7,N
1646600276.0,286047000.7,N
1646600295.8,286046998.2,N
1646600315.6,286047000.8,N
1646600335.5,286047000.5,N
1646600355.3,286047000.5,N
1646600375.2,286047000.2,N
1646600395.9,286047001.5,N
